IT9NKT-WX Weather Reports


Display with metric or nautical units.
time (UTC)temp
F
wind
direction
speed
MPH
gust
MPH
rain 1hr
in
rain 24hr
in
rain mn
in
humidity
%
barometer
mb
20260906234504 81 167 0.0 2.0 0.00 0.00 0.00 49 1020.9
20260906234003 81 168 0.0 1.0 0.00 0.00 0.00 49 1021.0
20260906233503 80 181 0.0 1.0 0.00 0.00 0.00 50 1021.2
20260906233004 80 187 0.0 1.0 0.00 0.00 0.00 51 1021.0
20260906232503 80 0 0.0 0.0 0.00 0.00 0.00 51 1021.2
20260906232004 80 0 0.0 0.0 0.00 0.00 0.00 51 1021.1
20260906231503 80 0 0.0 0.0 0.00 0.00 0.00 51 1021.1
20260906230503 80 189 0.0 1.0 0.00 0.00 0.00 52 1021.2
20260906230004 81 185 0.0 1.0 0.00 0.00 0.00 52 1021.1
20260906225503 81 0 0.0 0.0 0.00 0.00 0.00 52 1021.0
20260906225004 81 0 0.0 0.0 0.00 0.00 0.00 52 1021.0
20260906224503 81 197 0.0 0.0 0.00 0.00 0.00 52 1021.0
20260906224003 81 195 0.0 1.0 0.00 0.00 0.00 51 1021.0
20260906223715 81 190 0.0 1.0 0.00 0.00 0.00 51 1021.0
20260906223004 81 176 0.0 1.0 0.00 0.00 0.00 51 1021.1
20260906222503 82 179 0.0 1.0 0.00 0.00 0.00 50 1021.0
20260906222003 82 181 0.0 1.0 0.00 0.00 0.00 50 1020.9
20260906221503 81 178 0.0 1.0 0.00 0.00 0.00 50 1021.2
20260906221215 82 178 1.0 1.0 0.00 0.00 0.00 50 1021.2
20260906220503 82 187 1.0 2.0 0.00 0.00 0.00 50 1021.1
20260906220005 81 188 0.0 1.0 0.00 0.00 0.00 50 1021.1
20260906215504 81 181 0.0 2.0 0.00 0.00 0.00 51 1021.3
20260906215004 81 180 0.0 2.0 0.00 0.00 0.00 51 1021.0
20260906214503 81 195 0.0 1.0 0.00 0.00 0.00 52 1021.2
20260906214004 82 203 0.0 1.0 0.00 0.00 0.00 53 1021.3
20260906213503 82 199 0.0 1.0 0.00 0.00 0.00 54 1021.0
20260906213004 82 188 0.0 1.0 0.00 0.00 0.00 55 1021.1
20260906212504 82 187 0.0 1.0 0.00 0.00 0.00 56 1021.0
20260906212003 82 218 0.0 1.0 0.00 0.00 0.00 60 1021.0
20260906211503 82 221 0.0 1.0 0.00 0.00 0.00 62 1021.0
20260906211003 82 135 0.0 1.0 0.00 0.00 0.00 63 1021.0
20260906210719 82 0 0.0 0.0 0.00 0.00 0.00 63 1021.0
20260906210004 82 0 0.0 0.0 0.00 0.00 0.00 62 1021.1
20260906205714 82 0 0.0 0.0 0.00 0.00 0.00 62 1021.1
20260906205217 83 0 0.0 0.0 0.00 0.00 0.00 63 1020.8
20260906204715 83 0 0.0 0.0 0.00 0.00 0.00 63 1021.1
20260906204213 83 31 0.0 0.0 0.00 0.00 0.00 63 1021.1
20260906203503 83 281 0.0 1.0 0.00 0.00 0.00 63 1021.0
20260906203214 83 281 0.0 1.0 0.00 0.00 0.00 63 1021.2
20260906202503 83 314 0.0 2.0 0.00 0.00 0.00 63 1021.0
20260906202004 83 9 0.0 2.0 0.00 0.00 0.00 64 1021.1
20260906201504 83 63 1.0 2.0 0.00 0.00 0.00 63 1021.1
20260906201004 83 67 1.0 4.0 0.00 0.00 0.00 63 1021.2
20260906200504 83 57 1.0 4.0 0.00 0.00 0.00 63 1021.3
20260906200003 83 68 1.0 4.0 0.00 0.00 0.00 63 1021.1
20260906195503 84 56 1.0 4.0 0.00 0.00 0.00 62 1021.2
20260906195004 84 69 1.0 3.0 0.00 0.00 0.00 62 1021.3
20260906194504 84 76 1.0 4.0 0.00 0.00 0.00 61 1021.2
20260906194004 84 62 1.0 4.0 0.00 0.00 0.00 60 1021.2
20260906193503 84 38 0.0 3.0 0.00 0.00 0.00 60 1021.2
20260906193003 84 34 1.0 4.0 0.00 0.00 0.00 59 1021.0
20260906192718 84 32 1.0 4.0 0.00 0.00 0.00 59 1020.9
20260906192004 84 21 1.0 3.0 0.00 0.00 0.00 59 1020.8
20260906191714 84 24 1.0 3.0 0.00 0.00 0.00 59 1020.9
20260906191003 85 32 1.0 6.0 0.00 0.00 0.00 58 1020.6
20260906190504 85 51 1.0 6.0 0.00 0.00 0.00 58 1020.8
20260906190004 85 61 1.0 4.0 0.00 0.00 0.00 58 1020.6
20260906185504 85 48 2.0 8.0 0.00 0.00 0.00 59 1020.6
20260906185003 85 44 2.0 8.0 0.00 0.00 0.00 58 1020.6
20260906184503 85 46 1.0 7.0 0.00 0.00 0.00 58 1020.6
20260906184004 85 55 1.0 3.0 0.00 0.00 0.00 59 1020.4
20260906183503 85 59 1.0 6.0 0.00 0.00 0.00 59 1020.4
20260906183004 85 62 1.0 6.0 0.00 0.00 0.00 59 1020.2
20260906182504 85 49 1.0 4.0 0.00 0.00 0.00 59 1020.3
20260906182003 85 38 2.0 4.0 0.00 0.00 0.00 59 1020.4
20260906181503 85 38 2.0 11.0 0.00 0.00 0.00 58 1020.2
20260906181003 85 39 2.0 11.0 0.00 0.00 0.00 57 1020.1
20260906180503 85 55 2.0 8.0 0.00 0.00 0.00 57 1020.2
20260906180004 85 66 2.0 7.0 0.00 0.00 0.00 59 1020.1
20260906175503 85 79 2.0 6.0 0.00 0.00 0.00 59 1020.1
20260906175003 85 90 1.0 4.0 0.00 0.00 0.00 60 1020.0
20260906174504 85 75 1.0 8.0 0.00 0.00 0.00 59 1020.0
20260906174003 85 83 1.0 8.0 0.00 0.00 0.00 59 1019.7
20260906173504 85 86 2.0 7.0 0.00 0.00 0.00 61 1019.7
20260906173003 85 81 2.0 7.0 0.00 0.00 0.00 62 1019.7
20260906172503 85 76 2.0 9.0 0.00 0.00 0.00 62 1019.5
20260906172003 85 72 3.0 9.0 0.00 0.00 0.00 62 1019.7
20260906171503 85 78 3.0 8.0 0.00 0.00 0.00 62 1019.7
20260906171004 85 81 2.0 8.0 0.00 0.00 0.00 63 1019.6
20260906170504 85 74 1.0 4.0 0.00 0.00 0.00 64 1019.6
20260906170003 85 93 2.0 7.0 0.00 0.00 0.00 65 1019.7
20260906165504 85 104 3.0 7.0 0.00 0.00 0.00 67 1019.6
20260906165003 85 99 3.0 8.0 0.00 0.00 0.00 67 1019.5
20260906164504 85 87 3.0 8.0 0.00 0.00 0.00 68 1019.6
20260906164004 86 86 2.0 7.0 0.00 0.00 0.00 67 1019.6
20260906163503 86 92 2.0 6.0 0.00 0.00 0.00 67 1019.6
20260906163004 85 94 3.0 10.0 0.00 0.00 0.00 68 1019.6
20260906162504 85 101 3.0 10.0 0.00 0.00 0.00 70 1019.4
20260906162212 85 101 3.0 9.0 0.00 0.00 0.00 70 1019.6
20260906161716 85 105 4.0 10.0 0.00 0.00 0.00 70 1019.5
20260906161004 85 93 3.0 14.0 0.00 0.00 0.00 71 1019.4
20260906160503 85 79 4.0 14.0 0.00 0.00 0.00 71 1019.5
20260906160004 86 72 3.0 10.0 0.00 0.00 0.00 68 1019.2
20260906155717 87 82 3.0 7.0 0.00 0.00 0.00 65 1019.5
20260906155003 87 90 3.0 11.0 0.00 0.00 0.00 61 1019.1
20260906154504 87 99 3.0 7.0 0.00 0.00 0.00 60 1019.1
20260906154004 87 119 3.0 10.0 0.00 0.00 0.00 61 1019.1
20260906153714 88 115 3.0 10.0 0.00 0.00 0.00 61 1019.1
20260906153004 88 98 3.0 9.0 0.00 0.00 0.00 61 1019.2
20260906152503 89 112 2.0 6.0 0.00 0.00 0.00 61 1019.0
20260906152003 90 106 2.0 8.0 0.00 0.00 0.00 58 1018.9
20260906151504 90 118 2.0 8.0 0.00 0.00 0.00 55 1019.0
20260906151004 91 100 2.0 9.0 0.00 0.00 0.00 54 1018.9
20260906150717 91 99 2.0 9.0 0.00 0.00 0.00 54 1018.7
20260906150003 91 104 3.0 8.0 0.00 0.00 0.00 50 1018.9
20260906145503 91 91 3.0 8.0 0.00 0.00 0.00 52 1018.8
20260906145003 92 97 3.0 8.0 0.00 0.00 0.00 52 1018.6
20260906144503 92 83 2.0 8.0 0.00 0.00 0.00 48 1018.5
20260906144004 93 85 2.0 7.0 0.00 0.00 0.00 45 1018.7
20260906143503 92 86 3.0 10.0 0.00 0.00 0.00 46 1018.7
20260906143004 93 87 3.0 10.0 0.00 0.00 0.00 44 1018.6
20260906142503 93 101 2.0 7.0 0.00 0.00 0.00 43 1018.5
20260906142005 94 91 3.0 13.0 0.00 0.00 0.00 44 1018.5
20260906141503 93 64 2.0 13.0 0.00 0.00 0.00 41 1018.6
20260906141004 93 60 2.0 8.0 0.00 0.00 0.00 40 1018.5
20260906140503 94 70 2.0 9.0 0.00 0.00 0.00 44 1018.6
20260906140004 93 72 3.0 9.0 0.00 0.00 0.00 43 1018.7
20260906135503 93 92 3.0 8.0 0.00 0.00 0.00 45 1018.4
20260906135004 93 100 3.0 7.0 0.00 0.00 0.00 45 1018.4
20260906134503 93 91 3.0 9.0 0.00 0.00 0.00 44 1018.6
20260906134004 93 97 3.0 9.0 0.00 0.00 0.00 44 1018.4
20260906133504 93 79 2.0 6.0 0.00 0.00 0.00 44 1018.7
20260906133004 93 73 2.0 10.0 0.00 0.00 0.00 44 1018.6
20260906132504 93 76 2.0 10.0 0.00 0.00 0.00 40 1018.7
20260906132214 93 60 1.0 5.0 0.00 0.00 0.00 40 1018.7
20260906131503 93 93 2.0 9.0 0.00 0.00 0.00 40 1018.7
20260906131003 94 98 2.0 9.0 0.00 0.00 0.00 40 1018.9
20260906130504 94 74 1.0 5.0 0.00 0.00 0.00 38 1019.0
20260906130004 93 98 2.0 8.0 0.00 0.00 0.00 39 1018.9
20260906125714 93 111 2.0 8.0 0.00 0.00 0.00 39 1019.1
20260906125003 94 99 2.0 4.0 0.00 0.00 0.00 37 1019.1
20260906124504 92 98 2.0 7.0 0.00 0.00 0.00 40 1019.1
20260906124003 92 100 2.0 7.0 0.00 0.00 0.00 42 1019.1
20260906123503 92 75 2.0 6.0 0.00 0.00 0.00 39 1019.2
20260906123004 92 84 2.0 4.0 0.00 0.00 0.00 42 1019.2
20260906122504 93 105 3.0 8.0 0.00 0.00 0.00 43 1019.2
20260906122004 92 99 2.0 8.0 0.00 0.00 0.00 44 1019.4
20260906121503 91 103 2.0 7.0 0.00 0.00 0.00 45 1019.5
20260906121216 92 93 2.0 7.0 0.00 0.00 0.00 44 1019.3
20260906120503 92 137 2.0 6.0 0.00 0.00 0.00 46 1019.3
20260906120004 91 150 2.0 8.0 0.00 0.00 0.00 45 1019.1
20260906115504 92 124 2.0 8.0 0.00 0.00 0.00 46 1019.4
20260906115003 90 105 2.0 7.0 0.00 0.00 0.00 48 1019.5
20260906114504 90 108 2.0 7.0 0.00 0.00 0.00 48 1019.5
20260906114004 91 113 2.0 7.0 0.00 0.00 0.00 48 1019.3
20260906113503 90 85 2.0 7.0 0.00 0.00 0.00 47 1019.4
20260906113004 90 90 2.0 7.0 0.00 0.00 0.00 49 1019.4
20260906112504 92 110 2.0 6.0 0.00 0.00 0.00 48 1019.3
20260906112003 90 94 2.0 6.0 0.00 0.00 0.00 48 1019.5
20260906111503 91 82 2.0 7.0 0.00 0.00 0.00 49 1019.4
20260906111003 92 96 2.0 7.0 0.00 0.00 0.00 47 1019.3
20260906110503 93 99 2.0 7.0 0.00 0.00 0.00 45 1019.3
20260906110004 90 88 2.0 7.0 0.00 0.00 0.00 49 1019.5
20260906105503 90 88 1.0 4.0 0.00 0.00 0.00 45 1019.6
20260906105003 92 124 2.0 8.0 0.00 0.00 0.00 46 1019.5
20260906104503 91 132 3.0 8.0 0.00 0.00 0.00 47 1019.6
20260906104003 91 117 2.0 5.0 0.00 0.00 0.00 46 1019.7
20260906103503 91 107 1.0 7.0 0.00 0.00 0.00 44 1019.7
20260906103003 94 118 1.0 7.0 0.00 0.00 0.00 42 1019.5
20260906102713 92 103 1.0 4.0 0.00 0.00 0.00 43 1019.6
20260906102003 91 100 2.0 4.0 0.00 0.00 0.00 44 1019.8
20260906101504 92 113 2.0 4.0 0.00 0.00 0.00 44 1019.7
20260906101004 93 129 2.0 7.0 0.00 0.00 0.00 42 1019.7
20260906100504 93 136 2.0 7.0 0.00 0.00 0.00 42 1019.9
20260906100003 93 91 1.0 6.0 0.00 0.00 0.00 42 1019.8
20260906095503 91 108 1.0 6.0 0.00 0.00 0.00 42 1020.0
20260906095003 92 137 2.0 4.0 0.00 0.00 0.00 41 1019.8
20260906094503 94 127 2.0 6.0 0.00 0.00 0.00 41 1019.9
20260906094003 92 112 1.0 6.0 0.00 0.00 0.00 40 1019.9
20260906093504 92 124 1.0 6.0 0.00 0.00 0.00 40 1019.9
20260906093003 93 124 1.0 6.0 0.00 0.00 0.00 38 1020.1
20260906092503 93 125 1.0 4.0 0.00 0.00 0.00 40 1020.0
20260906092004 92 129 1.0 4.0 0.00 0.00 0.00 39 1019.9
20260906091503 93 134 1.0 4.0 0.00 0.00 0.00 39 1020.1
20260906091003 92 124 2.0 6.0 0.00 0.00 0.00 39 1020.1
20260906090503 91 114 2.0 6.0 0.00 0.00 0.00 40 1020.3
20260906090003 92 109 1.0 4.0 0.00 0.00 0.00 39 1020.2
20260906085503 93 124 1.0 4.0 0.00 0.00 0.00 37 1020.1
20260906085003 93 154 1.0 3.0 0.00 0.00 0.00 36 1020.0
20260906084503 92 144 1.0 3.0 0.00 0.00 0.00 37 1020.1
20260906084003 94 135 1.0 3.0 0.00 0.00 0.00 36 1020.0
20260906083503 93 163 1.0 6.0 0.00 0.00 0.00 37 1020.1
20260906083003 92 171 1.0 6.0 0.00 0.00 0.00 37 1020.0
20260906082503 92 164 1.0 3.0 0.00 0.00 0.00 38 1020.1
20260906082003 92 174 1.0 3.0 0.00 0.00 0.00 38 1019.9
20260906081504 91 168 1.0 3.0 0.00 0.00 0.00 40 1019.8
20260906081213 90 155 1.0 3.0 0.00 0.00 0.00 41 1020.0
20260906080503 89 116 1.0 3.0 0.00 0.00 0.00 44 1019.9
20260906080003 90 125 1.0 6.0 0.00 0.00 0.00 44 1019.9
20260906075503 90 133 1.0 6.0 0.00 0.00 0.00 44 1019.9
20260906075216 90 135 1.0 3.0 0.00 0.00 0.00 44 1019.9
20260906074504 89 111 1.0 2.0 0.00 0.00 0.00 46 1019.7
20260906074216 89 100 1.0 3.0 0.00 0.00 0.00 45 1019.8
20260906073504 89 170 1.0 4.0 0.00 0.00 0.00 46 1019.6
20260906073004 89 177 1.0 4.0 0.00 0.00 0.00 46 1019.7
20260906072715 89 158 1.0 4.0 0.00 0.00 0.00 47 1019.6
20260906072003 89 123 1.0 3.0 0.00 0.00 0.00 48 1019.6
20260906071503 89 168 1.0 3.0 0.00 0.00 0.00 47 1019.5
20260906071004 89 170 1.0 3.0 0.00 0.00 0.00 48 1019.6
20260906070503 89 179 1.0 2.0 0.00 0.00 0.00 49 1019.4
20260906070003 88 183 1.0 2.0 0.00 0.00 0.00 45 1019.4
20260906065504 89 184 1.0 2.0 0.00 0.00 0.00 46 1019.2
20260906065003 89 177 1.0 2.0 0.00 0.00 0.00 46 1019.4
20260906064503 89 171 0.0 2.0 0.00 0.00 0.00 47 1019.4
20260906064003 89 187 0.0 1.0 0.00 0.00 0.00 47 1019.3
20260906063504 88 175 0.0 1.0 0.00 0.00 0.00 47 1019.2
20260906063004 88 172 0.0 1.0 0.00 0.00 0.00 50 1019.3
20260906062716 88 170 0.0 1.0 0.00 0.00 0.00 50 1019.3
20260906062003 87 163 0.0 2.0 0.00 0.00 0.00 51 1019.4
20260906061504 88 180 0.0 1.0 0.00 0.00 0.00 50 1019.2
20260906061003 86 187 0.0 1.0 0.00 0.00 0.00 51 1019.4
20260906060713 86 183 0.0 1.0 0.00 0.00 0.00 50 1019.4
20260906060004 86 159 0.0 1.0 0.00 0.00 0.00 47 1019.3
20260906055503 85 155 0.0 1.0 0.00 0.00 0.00 46 1019.3
20260906055003 84 175 0.0 1.0 0.00 0.00 0.00 46 1019.3
20260906054503 84 172 0.0 1.0 0.00 0.00 0.00 47 1019.4
20260906054003 84 190 0.0 1.0 0.00 0.00 0.00 47 1019.3
20260906053504 83 187 0.0 0.0 0.00 0.00 0.00 47 1019.5
20260906053213 83 176 0.0 1.0 0.00 0.00 0.00 48 1019.3
20260906052503 81 161 0.0 2.0 0.00 0.00 0.00 50 1019.2
20260906052004 80 164 0.0 2.0 0.00 0.00 0.00 50 1019.2
20260906051503 80 180 0.0 2.0 0.00 0.00 0.00 51 1019.1
20260906051003 79 197 0.0 1.0 0.00 0.00 0.00 52 1019.0
20260906050503 78 204 0.0 1.0 0.00 0.00 0.00 53 1019.2
20260906050003 78 209 1.0 2.0 0.00 0.00 0.00 54 1019.2
20260906045714 77 210 1.0 2.0 0.00 0.00 0.00 54 1019.2
20260906045003 77 213 1.0 2.0 0.00 0.00 0.00 54 1019.2
20260906044504 77 215 1.0 2.0 0.00 0.00 0.00 55 1019.2
20260906044004 77 216 1.0 2.0 0.00 0.00 0.00 54 1019.4
20260906043504 77 223 1.0 2.0 0.00 0.00 0.00 55 1019.3
20260906043003 77 229 1.0 1.0 0.00 0.00 0.00 54 1019.1
20260906042503 77 221 1.0 1.0 0.00 0.00 0.00 55 1019.2
20260906042003 77 209 0.0 1.0 0.00 0.00 0.00 56 1019.0
20260906041504 77 212 0.0 1.0 0.00 0.00 0.00 56 1019.0
20260906041003 76 228 0.0 1.0 0.00 0.00 0.00 57 1019.1
20260906040504 77 223 0.0 1.0 0.00 0.00 0.00 57 1019.0
20260906040004 77 222 0.0 1.0 0.00 0.00 0.00 58 1018.9
20260906035504 77 205 0.0 1.0 0.00 0.00 0.00 59 1018.8
20260906035003 78 218 0.0 1.0 0.00 0.00 0.00 58 1018.8
20260906034503 78 221 0.0 1.0 0.00 0.00 0.00 58 1018.9
20260906034004 78 223 0.0 1.0 0.00 0.00 0.00 56 1018.7
20260906033504 78 257 0.0 1.0 0.00 0.00 0.00 56 1019.0
20260906033215 79 266 1.0 2.0 0.00 0.00 0.00 57 1018.9
20260906032504 79 281 1.0 2.0 0.00 0.00 0.00 57 1019.0
20260906032003 79 281 1.0 2.0 0.00 0.00 0.00 57 1018.8
20260906031714 79 277 1.0 2.0 0.00 0.00 0.00 57 1018.7
20260906031004 78 249 0.0 1.0 0.00 0.00 0.00 57 1018.8
20260906030504 78 247 1.0 1.0 0.00 0.00 0.00 58 1018.8
20260906030003 79 246 1.0 2.0 0.00 0.00 0.00 58 1018.8
20260906025715 79 252 1.0 2.0 0.00 0.00 0.00 57 1018.8
20260906025213 79 255 1.0 2.0 0.00 0.00 0.00 55 1018.6
20260906024503 79 237 0.0 1.0 0.00 0.00 0.00 53 1018.9
20260906024003 79 244 0.0 1.0 0.00 0.00 0.00 53 1018.8
20260906023504 79 253 0.0 1.0 0.00 0.00 0.00 52 1018.7
20260906023216 80 241 0.0 1.0 0.00 0.00 0.00 52 1018.7
20260906022713 79 247 0.0 1.0 0.00 0.00 0.00 52 1018.7
20260906022216 79 238 0.0 1.0 0.00 0.00 0.00 52 1018.7
20260906021503 79 230 0.0 1.0 0.00 0.00 0.00 53 1018.8
20260906021004 80 248 0.0 1.0 0.00 0.00 0.00 52 1018.7
20260906020504 80 271 1.0 2.0 0.00 0.00 0.00 51 1018.8
20260906020003 80 269 1.0 2.0 0.00 0.00 0.00 52 1018.8
20260906015503 80 263 1.0 2.0 0.00 0.00 0.00 51 1018.9
20260906015004 79 265 1.0 2.0 0.00 0.00 0.00 51 1018.9
20260906014717 79 262 0.0 2.0 0.00 0.00 0.00 52 1018.9
20260906014004 79 207 0.0 1.0 0.00 0.00 0.00 51 1018.9
20260906013503 78 196 0.0 1.0 0.00 0.00 0.00 52 1019.1
20260906013004 78 182 0.0 1.0 0.00 0.00 0.00 52 1018.8
20260906012503 78 166 0.0 1.0 0.00 0.00 0.00 53 1019.0
20260906012004 79 181 0.0 1.0 0.00 0.00 0.00 52 1019.1
20260906011503 78 191 0.0 1.0 0.00 0.00 0.00 53 1019.0
20260906011003 79 198 0.0 1.0 0.00 0.00 0.00 53 1019.0
20260906010716 79 201 0.0 1.0 0.00 0.00 0.00 53 1019.2
20260906010003 79 194 0.0 1.0 0.00 0.00 0.00 53 1019.1
20260906005504 79 184 0.0 1.0 0.00 0.00 0.00 53 1019.1
20260906005004 79 186 0.0 1.0 0.00 0.00 0.00 54 1019.1
20260906004503 79 181 0.0 1.0 0.00 0.00 0.00 54 1019.2
20260906004003 79 182 0.0 1.0 0.00 0.00 0.00 54 1019.2
20260906003503 79 190 0.0 1.0 0.00 0.00 0.00 55 1019.3
20260906003004 79 193 0.0 2.0 0.00 0.00 0.00 56 1019.2
20260906002715 79 192 0.0 2.0 0.00 0.00 0.00 56 1019.0
20260906002003 79 188 0.0 1.0 0.00 0.00 0.00 57 1019.4
20260906001503 79 204 0.0 1.0 0.00 0.00 0.00 57 1019.2
20260906001213 79 209 0.0 1.0 0.00 0.00 0.00 57 1019.1
20260906000503 79 206 0.0 1.0 0.00 0.00 0.00 58 1019.2
20260906000003 79 196 0.0 1.0 0.00 0.00 0.00 59 1019.3
20260905235718 79 199 0.0 1.0 0.00 0.00 0.00 59 1019.4
20260905235003 80 196 0.0 0.0 0.00 0.00 0.00 61 1019.4